Time,TemperatureF,DewpointF,PressureIn,WindDirection,WindDirectionDegrees,WindSpeedMPH,WindSpeedGustMPH,Humidity,HourlyPrecipIn,Conditions,Clouds,dailyrainin,SoftwareType,DateUTC
2015-07-31 00:03:00,69.6,63.9,29.91,SSW,202,0.0,0.0,82,0.00,,---,0.00,VWS V15.00,2015-07-31 04:03:00,
2015-07-31 00:08:00,69.5,64.1,29.91,SSW,202,0.0,0.0,83,0.00,,---,0.00,VWS V15.00,2015-07-31 04:08:00,
2015-07-31 00:13:00,69.4,64.0,29.91,SSW,202,0.0,0.0,83,0.00,,---,0.00,VWS V15.00,2015-07-31 04:13:00,
2015-07-31 00:18:00,69.2,64.2,29.91,SSW,202,0.0,0.0,84,0.00,,---,0.00,VWS V15.00,2015-07-31 04:18:00,
2015-07-31 00:23:00,69.1,64.1,29.92,SSW,202,0.0,0.0,84,0.00,,---,0.00,VWS V15.00,2015-07-31 04:23:00,
2015-07-31 00:28:00,69.0,64.0,29.92,SSW,202,0.0,0.0,84,0.00,,---,0.00,VWS V15.00,2015-07-31 04:28:00,
2015-07-31 00:33:00,68.8,63.8,29.92,SSW,202,0.0,0.0,84,0.00,,---,0.00,VWS V15.00,2015-07-31 04:33:00,
2015-07-31 00:38:00,68.7,63.7,29.92,SSW,202,0.0,0.0,84,0.00,,---,0.00,VWS V15.00,2015-07-31 04:38:00,
2015-07-31 00:43:00,68.6,63.9,29.92,SSW,202,0.0,0.0,85,0.00,,---,0.00,VWS V15.00,2015-07-31 04:43:00,
2015-07-31 00:48:00,68.5,63.8,29.92,SSW,202,0.0,0.0,85,0.00,,---,0.00,VWS V15.00,2015-07-31 04:48:00,
2015-07-31 00:53:00,68.5,63.8,29.92,SSW,202,0.0,0.0,85,0.00,,---,0.00,VWS V15.00,2015-07-31 04:53:00,
2015-07-31 00:58:00,68.4,63.7,29.92,SSW,202,0.0,0.0,85,0.00,,---,0.00,VWS V15.00,2015-07-31 04:58:00,
2015-07-31 01:03:00,68.3,64.0,29.92,SSW,202,0.0,0.0,86,0.00,,---,0.00,VWS V15.00,2015-07-31 05:03:00,
2015-07-31 01:08:00,68.2,63.9,29.92,SSW,202,0.0,0.0,86,0.00,,---,0.00,VWS V15.00,2015-07-31 05:08:00,
2015-07-31 01:13:00,68.1,63.4,29.92,SSW,202,0.0,0.0,85,0.00,,---,0.00,VWS V15.00,2015-07-31 05:13:00,
2015-07-31 01:18:00,68.0,63.3,29.92,SSW,202,0.0,0.0,85,0.00,,---,0.00,VWS V15.00,2015-07-31 05:18:00,
2015-07-31 01:23:00,67.9,63.2,29.92,SSW,202,0.0,0.0,85,0.00,,---,0.00,VWS V15.00,2015-07-31 05:23:00,
2015-07-31 01:28:00,67.8,63.5,29.92,SSW,202,0.0,0.0,86,0.00,,---,0.00,VWS V15.00,2015-07-31 05:28:00,
2015-07-31 01:33:00,67.7,63.4,29.92,SSW,202,0.0,0.0,86,0.00,,---,0.00,VWS V15.00,2015-07-31 05:33:00,
2015-07-31 01:38:00,67.6,63.3,29.92,SSW,202,0.0,0.0,86,0.00,,---,0.00,VWS V15.00,2015-07-31 05:38:00,
2015-07-31 01:43:00,67.6,63.3,29.92,SSW,202,0.0,0.0,86,0.00,,---,0.00,VWS V15.00,2015-07-31 05:43:00,
2015-07-31 01:48:00,67.5,63.5,29.92,SSW,202,0.0,0.0,87,0.00,,---,0.00,VWS V15.00,2015-07-31 05:48:00,
2015-07-31 01:53:00,67.4,63.4,29.92,SSW,202,0.0,0.0,87,0.00,,---,0.00,VWS V15.00,2015-07-31 05:53:00,
2015-07-31 01:58:00,67.4,63.4,29.92,SSW,202,0.0,0.0,87,0.00,,---,0.00,VWS V15.00,2015-07-31 05:58:00,
2015-07-31 02:03:00,67.3,63.3,29.92,SSW,202,0.0,0.0,87,0.00,,---,0.00,VWS V15.00,2015-07-31 06:03:00,
2015-07-31 02:08:00,67.2,63.2,29.92,SSW,202,0.0,0.0,87,0.00,,---,0.00,VWS V15.00,2015-07-31 06:08:00,
2015-07-31 02:13:00,67.0,63.0,29.92,SSW,202,0.0,0.0,87,0.00,,---,0.00,VWS V15.00,2015-07-31 06:13:00,
2015-07-31 02:18:00,66.9,62.9,29.92,SSW,202,0.0,0.0,87,0.00,,---,0.00,VWS V15.00,2015-07-31 06:18:00,
2015-07-31 02:23:00,66.8,63.1,29.91,SSW,202,0.0,0.0,88,0.00,,---,0.00,VWS V15.00,2015-07-31 06:23:00,
2015-07-31 02:28:00,66.7,63.0,29.92,SSW,202,0.0,0.0,88,0.00,,---,0.00,VWS V15.00,2015-07-31 06:28:00,
2015-07-31 02:33:00,66.7,63.4,29.91,SSW,202,0.0,0.0,89,0.00,,---,0.00,VWS V15.00,2015-07-31 06:33:00,
2015-07-31 02:38:00,66.6,63.3,29.92,SSW,202,0.0,0.0,89,0.00,,---,0.00,VWS V15.00,2015-07-31 06:38:00,
2015-07-31 02:43:00,66.5,63.2,29.91,SSW,202,0.0,0.0,89,0.00,,---,0.00,VWS V15.00,2015-07-31 06:43:00,
2015-07-31 02:48:00,66.4,63.1,29.91,SSW,202,0.0,0.0,89,0.00,,---,0.00,VWS V15.00,2015-07-31 06:48:00,
2015-07-31 02:53:00,66.3,63.0,29.91,SSW,202,0.0,0.0,89,0.00,,---,0.00,VWS V15.00,2015-07-31 06:53:00,
2015-07-31 02:58:00,66.2,62.9,29.91,SSW,202,0.0,0.0,89,0.00,,---,0.00,VWS V15.00,2015-07-31 06:58:00,
2015-07-31 03:03:00,66.2,63.2,29.91,SSW,202,0.0,0.0,90,0.00,,---,0.00,VWS V15.00,2015-07-31 07:03:00,
2015-07-31 03:08:00,66.1,63.1,29.91,SSW,202,0.0,0.0,90,0.00,,---,0.00,VWS V15.00,2015-07-31 07:08:00,
2015-07-31 03:13:00,66.0,63.0,29.91,SSW,202,0.0,0.0,90,0.00,,---,0.00,VWS V15.00,2015-07-31 07:13:00,
2015-07-31 03:18:00,66.0,63.0,29.91,SSW,202,0.0,0.0,90,0.00,,---,0.00,VWS V15.00,2015-07-31 07:18:00,
2015-07-31 03:23:00,65.9,62.9,29.91,SSW,202,0.0,0.0,90,0.00,,---,0.00,VWS V15.00,2015-07-31 07:23:00,
2015-07-31 03:28:00,65.9,63.2,29.91,SSW,202,0.0,0.0,91,0.00,,---,0.00,VWS V15.00,2015-07-31 07:28:00,
2015-07-31 03:33:00,65.9,63.2,29.91,SSW,202,0.0,0.0,91,0.00,,---,0.00,VWS V15.00,2015-07-31 07:33:00,
2015-07-31 03:38:00,65.9,63.2,29.91,SSW,202,0.0,0.0,91,0.00,,---,0.00,VWS V15.00,2015-07-31 07:38:00,
2015-07-31 03:43:00,65.8,63.1,29.91,SSW,202,0.0,0.0,91,0.00,,---,0.00,VWS V15.00,2015-07-31 07:43:00,
2015-07-31 03:48:00,65.9,63.2,29.91,SSW,202,0.0,0.0,91,0.00,,---,0.00,VWS V15.00,2015-07-31 07:48:00,
2015-07-31 03:53:00,65.8,63.1,29.91,SSW,202,0.0,0.0,91,0.00,,---,0.00,VWS V15.00,2015-07-31 07:53:00,
2015-07-31 03:58:00,65.8,63.1,29.91,SSW,202,0.0,0.0,91,0.00,,---,0.00,VWS V15.00,2015-07-31 07:58:00,
2015-07-31 04:03:00,65.8,63.1,29.91,SSW,202,0.0,0.0,91,0.00,,---,0.00,VWS V15.00,2015-07-31 08:03:00,
2015-07-31 04:08:00,65.8,63.1,29.91,SSW,202,0.0,0.0,91,0.00,,---,0.00,VWS V15.00,2015-07-31 08:08:00,
2015-07-31 04:13:00,65.8,63.1,29.91,SSW,202,0.0,0.0,91,0.00,,---,0.00,VWS V15.00,2015-07-31 08:13:00,
2015-07-31 04:18:00,65.7,63.0,29.91,SSW,202,0.0,0.0,91,0.00,,---,0.00,VWS V15.00,2015-07-31 08:18:00,
2015-07-31 04:23:00,65.7,63.0,29.91,SSW,202,0.0,0.0,91,0.00,,---,0.00,VWS V15.00,2015-07-31 08:23:00,
2015-07-31 04:28:00,65.7,63.0,29.90,SSW,202,0.0,0.0,91,0.00,,---,0.00,VWS V15.00,2015-07-31 08:28:00,
2015-07-31 04:33:00,65.6,62.9,29.90,SSW,202,0.0,0.0,91,0.00,,---,0.00,VWS V15.00,2015-07-31 08:33:00,
2015-07-31 04:38:00,65.6,62.9,29.90,SSW,202,0.0,0.0,91,0.00,,---,0.00,VWS V15.00,2015-07-31 08:38:00,
2015-07-31 04:43:00,65.5,62.8,29.90,SSW,202,0.0,0.0,91,0.00,,---,0.00,VWS V15.00,2015-07-31 08:43:00,
2015-07-31 04:53:00,65.4,62.7,29.90,SSW,202,0.0,0.0,91,0.00,,---,0.00,VWS V15.00,2015-07-31 08:53:00,
2015-07-31 04:58:00,65.3,62.6,29.90,SSW,202,0.0,0.0,91,0.00,,---,0.00,VWS V15.00,2015-07-31 08:58:00,
2015-07-31 05:03:00,65.3,62.6,29.90,SSW,202,0.0,0.0,91,0.00,,---,0.00,VWS V15.00,2015-07-31 09:03:00,
2015-07-31 05:08:00,65.2,62.5,29.90,SSW,202,0.0,0.0,91,0.00,,---,0.00,VWS V15.00,2015-07-31 09:08:00,
2015-07-31 05:13:00,65.2,62.5,29.90,SSW,202,0.0,0.0,91,0.00,,---,0.00,VWS V15.00,2015-07-31 09:13:00,
2015-07-31 05:18:00,65.1,62.7,29.90,SSW,202,0.0,0.0,92,0.00,,---,0.00,VWS V15.00,2015-07-31 09:18:00,
2015-07-31 05:23:00,65.1,62.7,29.90,SSW,202,0.0,0.0,92,0.00,,---,0.00,VWS V15.00,2015-07-31 09:23:00,
2015-07-31 05:28:00,65.0,62.3,29.90,SSW,202,0.0,0.0,91,0.00,,---,0.00,VWS V15.00,2015-07-31 09:28:00,
2015-07-31 05:33:00,64.8,62.1,29.90,SSW,202,0.0,0.0,91,0.00,,---,0.00,VWS V15.00,2015-07-31 09:33:00,
2015-07-31 05:38:00,64.7,62.0,29.90,SSW,202,0.0,0.0,91,0.00,,---,0.00,VWS V15.00,2015-07-31 09:38:00,
2015-07-31 05:43:00,64.5,61.8,29.90,SSW,202,0.0,0.0,91,0.00,,---,0.00,VWS V15.00,2015-07-31 09:43:00,
2015-07-31 05:48:00,64.3,61.6,29.90,SSW,202,0.0,0.0,91,0.00,,---,0.00,VWS V15.00,2015-07-31 09:48:00,
2015-07-31 05:53:00,64.2,61.8,29.90,SSW,202,0.0,0.0,92,0.00,,---,0.00,VWS V15.00,2015-07-31 09:53:00,
2015-07-31 05:58:00,64.2,61.8,29.90,SSW,202,0.0,0.0,92,0.00,,---,0.00,VWS V15.00,2015-07-31 09:58:00,
2015-07-31 06:03:00,64.1,61.7,29.90,SSW,202,0.0,0.0,92,0.00,,---,0.00,VWS V15.00,2015-07-31 10:03:00,
2015-07-31 06:08:00,64.0,61.6,29.90,SSW,202,0.0,0.0,92,0.00,,---,0.00,VWS V15.00,2015-07-31 10:08:00,
2015-07-31 06:13:00,64.0,61.6,29.90,SSW,202,0.0,0.0,92,0.00,,---,0.00,VWS V15.00,2015-07-31 10:13:00,
2015-07-31 06:18:00,63.9,61.5,29.90,SSW,202,0.0,0.0,92,0.00,,---,0.00,VWS V15.00,2015-07-31 10:18:00,
2015-07-31 06:23:00,63.9,61.5,29.90,SSW,202,0.0,0.0,92,0.00,,---,0.00,VWS V15.00,2015-07-31 10:23:00,
2015-07-31 06:28:00,63.8,61.4,29.90,SSW,202,0.0,0.0,92,0.00,,---,0.00,VWS V15.00,2015-07-31 10:28:00,
2015-07-31 06:33:00,63.8,61.4,29.91,SSW,202,0.0,0.0,92,0.00,,---,0.00,VWS V15.00,2015-07-31 10:33:00,
2015-07-31 06:38:00,63.7,61.6,29.91,SSW,202,0.0,0.0,93,0.00,,---,0.00,VWS V15.00,2015-07-31 10:38:00,
2015-07-31 06:43:00,63.6,61.5,29.91,SSW,202,0.0,0.0,93,0.00,,---,0.00,VWS V15.00,2015-07-31 10:43:00,
2015-07-31 06:48:00,63.6,61.5,29.91,SSW,202,0.0,0.0,93,0.00,,---,0.00,VWS V15.00,2015-07-31 10:48:00,
2015-07-31 06:53:00,63.5,61.4,29.91,SSW,202,0.0,0.0,93,0.00,,---,0.00,VWS V15.00,2015-07-31 10:53:00,
2015-07-31 06:58:00,63.5,61.4,29.91,SSW,202,0.0,0.0,93,0.00,,---,0.00,VWS V15.00,2015-07-31 10:58:00,
2015-07-31 07:03:00,63.5,61.8,29.91,SSW,202,0.0,0.0,94,0.00,,---,0.00,VWS V15.00,2015-07-31 11:03:00,
2015-07-31 07:08:00,63.6,61.8,29.91,SSW,202,0.0,0.0,94,0.00,,---,0.00,VWS V15.00,2015-07-31 11:08:00,
2015-07-31 07:13:00,63.8,62.0,29.91,SSW,202,0.0,0.0,94,0.00,,---,0.00,VWS V15.00,2015-07-31 11:13:00,
2015-07-31 07:18:00,64.2,62.4,29.91,SSW,202,0.0,0.0,94,0.00,,---,0.00,VWS V15.00,2015-07-31 11:18:00,
2015-07-31 07:23:00,64.8,63.0,29.92,SSW,202,0.0,0.0,94,0.00,,---,0.00,VWS V15.00,2015-07-31 11:23:00,
2015-07-31 07:28:00,65.6,63.8,29.92,SSW,202,0.0,0.0,94,0.00,,---,0.00,VWS V15.00,2015-07-31 11:28:00,
2015-07-31 07:33:00,66.5,64.4,29.92,SSW,202,0.0,0.0,93,0.00,,---,0.00,VWS V15.00,2015-07-31 11:33:00,
2015-07-31 07:38:00,67.3,64.9,29.92,SSW,202,0.0,0.0,92,0.00,,---,0.00,VWS V15.00,2015-07-31 11:38:00,
2015-07-31 07:43:00,68.1,65.1,29.92,SSW,202,0.0,0.0,90,0.00,,---,0.00,VWS V15.00,2015-07-31 11:43:00,
2015-07-31 07:48:00,69.0,65.6,29.92,SSW,202,0.0,0.0,89,0.00,,---,0.00,VWS V15.00,2015-07-31 11:48:00,
2015-07-31 07:53:00,70.1,66.4,29.92,SSW,202,0.0,0.0,88,0.00,,---,0.00,VWS V15.00,2015-07-31 11:53:00,
2015-07-31 07:58:00,71.0,66.3,29.92,SSW,202,0.0,0.0,85,0.00,,---,0.00,VWS V15.00,2015-07-31 11:58:00,
2015-07-31 08:03:00,72.1,66.7,29.92,SSW,202,0.0,0.0,83,0.00,,---,0.00,VWS V15.00,2015-07-31 12:03:00,
2015-07-31 08:08:00,73.0,66.8,29.92,SSW,202,0.0,0.0,81,0.00,,---,0.00,VWS V15.00,2015-07-31 12:08:00,
2015-07-31 08:13:00,73.5,65.9,29.92,SSW,202,0.0,0.0,77,0.00,,---,0.00,VWS V15.00,2015-07-31 12:13:00,
2015-07-31 08:18:00,73.8,66.9,29.92,SSW,202,0.0,0.0,79,0.00,,---,0.00,VWS V15.00,2015-07-31 12:18:00,
2015-07-31 08:23:00,74.1,66.4,29.92,SSW,202,0.0,0.0,77,0.00,,---,0.00,VWS V15.00,2015-07-31 12:23:00,
2015-07-31 08:28:00,74.4,66.7,29.92,SSW,196,0.0,0.0,77,0.00,,---,0.00,VWS V15.00,2015-07-31 12:28:00,
2015-07-31 08:33:00,74.8,66.3,29.93,SSW,197,0.0,0.0,75,0.00,,---,0.00,VWS V15.00,2015-07-31 12:33:00,
2015-07-31 08:38:00,75.1,66.6,29.92,SSW,197,0.0,0.0,75,0.00,,---,0.00,VWS V15.00,2015-07-31 12:38:00,
2015-07-31 08:43:00,75.3,66.4,29.92,ENE,67,0.0,0.0,74,0.00,,---,0.00,VWS V15.00,2015-07-31 12:43:00,
2015-07-31 08:48:00,75.4,66.2,29.92,ENE,67,0.0,0.0,73,0.00,,---,0.00,VWS V15.00,2015-07-31 12:48:00,
2015-07-31 08:53:00,75.7,66.0,29.92,ENE,67,0.0,0.0,72,0.00,,---,0.00,VWS V15.00,2015-07-31 12:53:00,
2015-07-31 08:58:00,75.7,66.0,29.92,ENE,67,0.0,0.0,72,0.00,,---,0.00,VWS V15.00,2015-07-31 12:58:00,
2015-07-31 09:03:00,75.7,66.4,29.92,ENE,67,0.0,0.0,73,0.00,,---,0.00,VWS V15.00,2015-07-31 13:03:00,
2015-07-31 09:08:00,76.1,66.8,29.92,ENE,67,0.0,0.0,73,0.00,,---,0.00,VWS V15.00,2015-07-31 13:08:00,